GW1701 Weather Reports


time (UTC)temp
C
wind
direction
speed
KPH
gust
KPH
rain 1hr
cm
rain 24hr
cm
rain mn
cm
humidity
%
barometer
mb
20260509213046 32 155 3.2 3.2 0.00 0.00 0.00 67 1008.2
20260509212543 32 101 0.0 0.0 0.00 0.00 0.00 65 1008.5
20260509212040 31 142 1.6 3.2 0.00 0.00 0.00 65 1008.3
20260509211536 31 78 0.0 0.0 0.00 0.00 0.00 69 1008.4
20260509211033 31 64 0.0 0.0 0.00 0.00 0.00 68 1008.4
20260509210530 31 100 1.6 3.2 0.00 0.00 0.00 67 1008.7
20260509210026 31 86 0.0 0.0 0.00 0.00 0.00 70 1008.9
20260509205520 31 73 1.6 3.2 0.00 0.00 0.00 69 1008.6
20260509205016 30 86 0.0 0.0 0.00 0.00 0.00 71 1009.0
20260509204512 30 95 1.6 3.2 0.00 0.00 0.00 70 1008.9
20260509204009 30 103 0.0 0.0 0.00 0.00 0.00 70 1009.0
20260509203505 28 133 0.0 0.0 0.00 0.00 0.00 71 1009.4
20260509203004 28 12 0.0 3.2 0.00 0.00 0.00 71 1009.2
20260509202458 28 162 4.8 4.8 0.00 0.00 0.00 74 1009.4
20260509201954 28 96 3.2 3.2 0.00 0.00 0.00 75 1009.7
20260509201454 28 123 1.6 3.2 0.00 0.00 0.00 78 1009.5
20260509200951 27 14 0.0 3.2 0.00 0.00 0.00 79 1009.8
20260509200446 29 75 1.6 3.2 0.00 0.00 0.00 83 1010.0
20260509195943 28 191 1.6 3.2 0.00 0.00 0.00 85 1009.7
20260509195439 27 132 0.0 0.0 0.00 0.00 0.00 89 1009.8
20260509194938 26 121 0.0 0.0 0.00 0.00 0.00 93 1009.8
20260509194434 26 106 0.0 0.0 0.00 0.00 0.00 94 1010.2
20260509193932 26 112 0.0 0.0 0.00 0.00 0.00 94 1010.0
20260509193431 26 107 0.0 0.0 0.00 0.00 0.00 93 1009.9
20260509192927 26 107 0.0 0.0 0.00 0.00 0.00 92 1010.0
20260509192424 27 107 0.0 0.0 0.00 0.00 0.00 90 1009.7
20260509191919 27 115 1.6 3.2 0.00 0.00 0.00 88 1009.8
20260509191414 28 50 1.6 3.2 0.00 0.00 0.00 83 1009.6
20260509190911 28 81 0.0 3.2 0.00 0.00 0.00 80 1009.5
20260509190408 28 97 0.0 0.0 0.00 0.00 0.00 79 1009.6
20260509185905 28 99 0.0 0.0 0.00 0.00 0.00 80 1009.9
20260509185402 28 155 3.2 4.8 0.00 0.00 0.00 79 1010.0
20260509184858 28 74 0.0 0.0 0.00 0.00 0.00 80 1009.6
20260509184355 28 83 0.0 0.0 0.00 0.00 0.00 80 1009.9
20260509183853 28 9 0.0 0.0 0.00 0.00 0.00 79 1010.2
20260509183347 28 116 0.0 0.0 0.00 0.00 0.00 80 1010.1
20260509182843 29 79 0.0 0.0 0.00 0.00 0.00 78 1010.3
20260509182341 30 147 3.2 4.8 0.00 0.00 0.00 74 1010.3
20260509181838 30 84 0.0 0.0 0.00 0.00 0.00 73 1010.3
20260509181335 30 81 0.0 0.0 0.00 0.00 0.00 72 1010.4
20260509180832 30 93 0.0 0.0 0.00 0.00 0.00 71 1010.2
20260509180328 30 106 0.0 0.0 0.00 0.00 0.00 69 1010.5
20260509175825 30 77 1.6 3.2 0.00 0.00 0.00 68 1010.4
20260509175321 30 99 1.6 3.2 0.00 0.00 0.00 71 1010.4
20260509174818 29 341 3.2 4.8 0.00 0.00 0.00 73 1010.7
20260509174313 30 136 1.6 3.2 0.00 0.00 0.00 72 1010.6
20260509173810 30 94 0.0 0.0 0.00 0.00 0.00 70 1010.7
20260509173305 30 84 0.0 0.0 0.00 0.00 0.00 74 1010.8
20260509172801 29 89 0.0 0.0 0.00 0.00 0.00 74 1010.6
20260509172253 29 101 0.0 0.0 0.00 0.00 0.00 77 1010.9
20260509171749 29 80 1.6 3.2 0.00 0.00 0.00 76 1010.8
20260509171245 29 108 0.0 3.2 0.00 0.00 0.00 76 1010.8
20260509170742 30 325 3.2 4.8 0.00 0.00 0.00 75 1011.0
20260509170238 29 75 0.0 0.0 0.00 0.00 0.00 76 1011.1
20260509165736 28 103 0.0 0.0 0.00 0.00 0.00 78 1011.0
20260509165232 28 184 3.2 4.8 0.00 0.00 0.00 79 1010.8
20260509164728 28 94 1.6 3.2 0.00 0.00 0.00 79 1011.1
20260509164224 28 124 1.6 4.8 0.00 0.00 0.00 81 1011.0
20260509163721 28 160 4.8 8.0 0.00 0.00 0.00 79 1011.1
20260509163217 29 142 4.8 4.8 0.00 0.00 0.00 76 1011.2
20260509162715 28 52 3.2 4.8 0.00 0.00 0.00 79 1011.2
20260509162210 28 120 0.0 0.0 0.00 0.00 0.00 83 1011.5
20260509161706 28 119 0.0 0.0 0.00 0.00 0.00 80 1011.3
20260509161203 27 105 1.6 3.2 0.00 0.00 0.00 83 1011.0
20260509160658 27 122 1.6 3.2 0.00 0.00 0.00 82 1011.4
20260509160154 27 110 1.6 3.2 0.00 0.00 0.00 82 1011.5
20260509155650 27 101 1.6 3.2 0.00 0.00 0.00 84 1011.4
20260509155146 26 81 3.2 4.8 0.00 0.00 0.00 87 1011.3
20260509154642 26 120 1.6 3.2 0.00 0.00 0.00 88 1011.2
20260509154140 26 61 3.2 4.8 0.00 0.00 0.00 88 1011.2
20260509153636 26 210 1.6 4.8 0.00 0.00 0.00 88 1011.1
20260509153133 26 112 0.0 3.2 0.00 0.00 0.00 88 1010.8
20260509152628 26 104 0.0 0.0 0.00 0.00 0.00 89 1010.7
20260509152126 26 30 3.2 3.2 0.00 0.00 0.00 90 1010.7
20260509151622 26 198 3.2 4.8 0.00 0.00 0.00 90 1010.7
20260509151120 26 58 0.0 3.2 0.00 0.00 0.00 91 1010.7
20260509150618 25 84 1.6 3.2 0.00 0.00 0.00 91 1010.6
20260509150116 25 196 8.0 9.7 0.00 0.00 0.00 92 1010.7
20260509145611 25 132 3.2 4.8 0.00 0.00 0.00 93 1010.3
20260509145107 25 90 4.8 8.0 0.00 0.00 0.00 93 1010.4
20260509144604 24 189 3.2 4.8 0.00 0.00 0.00 94 1010.3
20260509144101 23 107 3.2 4.8 0.00 0.00 0.00 95 1010.4
20260509143558 23 213 3.2 4.8 0.00 0.00 0.00 97 1010.3
20260509143055 23 124 1.6 3.2 0.00 0.00 0.00 98 1010.3
20260509142550 23 167 4.8 8.0 0.00 0.00 0.00 98 1010.1
20260509142046 23 223 3.2 4.8 0.00 0.00 0.00 99 1009.9
20260509141543 23 86 3.2 4.8 0.00 0.00 0.00 99 1010.1
20260509141040 23 207 3.2 8.0 0.00 0.00 0.00 99 1009.9
20260509140536 23 106 0.0 0.0 0.00 0.00 0.00 99 1009.6
20260509140034 23 167 4.8 8.0 0.00 0.00 0.00 99 1009.5
20260509135531 23 55 0.0 0.0 0.00 0.00 0.00 99 1009.6
20260509135029 22 162 3.2 4.8 0.00 0.00 0.00 99 1010.0
20260509134526 22 128 1.6 3.2 0.00 0.00 0.00 99 1009.7
20260509134024 22 212 3.2 3.2 0.00 0.00 0.00 99 1010.0
20260509133520 22 169 4.8 4.8 0.00 0.00 0.00 99 1010.0
20260509133018 22 118 0.0 0.0 0.00 0.00 0.00 99 1010.0
20260509132516 22 63 4.8 9.7 0.00 0.00 0.00 99 1009.8
20260509132013 22 132 1.6 4.8 0.00 0.00 0.00 99 1010.1
20260509131509 22 191 4.8 8.0 0.00 0.00 0.00 99 1010.2
20260509131006 22 97 0.0 0.0 0.00 0.00 0.00 99 1010.3
20260509130501 22 128 0.0 0.0 0.00 0.00 0.00 99 1010.5
20260509125959 22 108 0.0 3.2 0.00 0.00 0.00 99 1010.5
20260509125455 22 44 0.0 0.0 0.00 0.00 0.00 99 1010.3
20260509124951 22 117 0.0 3.2 0.00 0.00 0.00 99 1010.4
20260509124449 22 108 0.0 0.0 0.00 0.00 0.00 99 1010.4
20260509123946 21 104 0.0 0.0 0.00 0.00 0.00 99 1010.2
20260509123443 21 92 0.0 0.0 0.00 0.00 0.00 99 1010.1
20260509122939 21 84 0.0 0.0 0.00 0.00 0.00 99 1010.2
20260509122436 21 89 0.0 0.0 0.00 0.00 0.00 99 1010.5
20260509121932 21 92 0.0 0.0 0.00 0.00 0.00 99 1010.2
20260509121430 21 94 0.0 0.0 0.00 0.00 0.00 99 1010.1
20260509120928 21 89 0.0 0.0 0.00 0.00 0.00 99 1010.0
20260509120425 21 95 0.0 0.0 0.00 0.00 0.00 99 1010.1
20260509115923 21 91 0.0 0.0 0.00 0.00 0.00 99 1010.4
20260509115420 21 90 0.0 0.0 0.00 0.00 0.00 99 1010.4
20260509114918 21 106 0.0 0.0 0.00 0.00 0.00 99 1010.6
20260509114416 21 105 0.0 0.0 0.00 0.00 0.00 99 1010.5
20260509113916 21 102 0.0 0.0 0.00 0.00 0.00 99 1010.6
20260509113413 22 91 0.0 0.0 0.00 0.00 0.00 99 1010.9
20260509112909 22 87 0.0 0.0 0.00 0.00 0.00 99 1011.1
20260509112406 22 85 0.0 0.0 0.00 0.00 0.00 99 1011.4
20260509111903 22 82 0.0 0.0 0.00 0.00 0.00 99 1011.5
20260509111400 22 79 0.0 0.0 0.00 0.00 0.00 99 1011.7
20260509110858 22 82 0.0 0.0 0.00 0.00 0.00 99 1011.9
20260509110353 22 69 0.0 3.2 0.00 0.00 0.00 99 1011.5
20260509105852 22 70 0.0 0.0 0.00 0.00 0.00 99 1011.8
20260509105350 22 87 0.0 0.0 0.00 0.00 0.00 99 1011.5
20260509104846 22 83 0.0 0.0 0.00 0.00 0.00 99 1011.6
20260509104343 22 78 0.0 0.0 0.00 0.00 0.00 99 1011.7
20260509103841 22 67 1.6 3.2 0.00 0.00 0.00 99 1011.5
20260509103338 22 82 0.0 0.0 0.00 0.00 0.00 99 1011.7
20260509102837 22 84 0.0 0.0 0.00 0.00 0.00 99 1011.3
20260509102333 22 104 0.0 0.0 0.00 0.00 0.00 99 1011.0
20260509101829 22 110 0.0 0.0 0.00 0.00 0.00 99 1011.4
20260509101326 22 96 0.0 0.0 0.00 0.00 0.00 99 1011.3
20260509100824 22 81 0.0 0.0 0.00 0.00 0.00 99 1011.5
20260509100320 22 83 0.0 0.0 0.00 0.00 0.00 99 1011.2
20260509095817 22 83 0.0 0.0 0.00 0.00 0.00 99 1011.1
20260509095314 22 84 0.0 0.0 0.00 0.00 0.00 99 1011.1
20260509094811 22 84 0.0 0.0 0.00 0.00 0.00 99 1010.9
20260509094308 22 92 0.0 0.0 0.00 0.00 0.00 99 1010.9
20260509093806 22 92 0.0 0.0 0.00 0.00 0.00 99 1010.5
20260509093303 22 101 0.0 0.0 0.00 0.00 0.00 99 1010.1
20260509092801 22 105 0.0 0.0 0.00 0.00 0.00 99 1010.2
20260509092259 22 105 0.0 0.0 0.00 0.00 0.00 99 1010.0
20260509091757 22 106 0.0 0.0 0.00 0.00 0.00 99 1010.0
20260509091253 22 114 0.0 0.0 0.00 0.00 0.00 99 1010.0
20260509090750 22 105 0.0 0.0 0.00 0.00 0.00 99 1010.0
20260509090247 22 86 0.0 0.0 0.00 0.00 0.00 99 1010.0
20260509085745 22 86 0.0 0.0 0.00 0.00 0.00 99 1010.3
20260509085242 22 84 0.0 0.0 0.00 0.00 0.00 99 1010.1
20260509084738 22 84 0.0 0.0 0.00 0.00 0.00 99 1010.4
20260509084235 22 84 0.0 0.0 0.00 0.00 0.00 99 1010.5
20260509083733 22 84 0.0 0.0 0.00 0.00 0.00 99 1010.6
20260509083230 22 88 0.0 0.0 0.00 0.00 0.00 99 1010.7
20260509082726 22 98 0.0 0.0 0.00 0.00 0.00 99 1010.5
20260509082223 22 100 0.0 0.0 0.00 0.00 0.00 99 1010.4
20260509081720 22 100 0.0 0.0 0.00 0.00 0.00 99 1010.4
20260509081218 22 100 0.0 0.0 0.00 0.00 0.00 99 1010.6
20260509080716 22 100 0.0 0.0 0.00 0.00 0.00 99 1010.5
20260509080213 22 100 0.0 0.0 0.00 0.00 0.00 99 1010.7
20260509075711 22 98 0.0 0.0 0.00 0.00 0.00 99 1010.5
20260509075208 22 98 0.0 0.0 0.00 0.00 0.00 99 1010.8
20260509074705 22 99 0.0 0.0 0.00 0.00 0.00 99 1010.8
20260509074202 22 98 0.0 0.0 0.00 0.00 0.00 99 1010.9
20260509073659 22 98 0.0 0.0 0.00 0.00 0.00 99 1011.0
20260509073155 22 97 0.0 0.0 0.00 0.00 0.00 99 1011.5
20260509072652 22 97 0.0 0.0 0.00 0.00 0.00 99 1011.2
20260509072148 22 97 0.0 0.0 0.00 0.00 0.00 99 1011.1
20260509071645 22 98 0.0 0.0 0.00 0.00 0.00 99 1011.1
20260509071142 22 100 0.0 0.0 0.00 0.00 0.00 99 1011.3
20260509070639 22 100 0.0 0.0 0.00 0.00 0.00 99 1011.1
20260509070136 22 100 0.0 0.0 0.00 0.00 0.00 99 1010.9
20260509065631 22 100 0.0 0.0 0.00 0.00 0.00 99 1010.9
20260509065128 22 99 0.0 0.0 0.00 0.00 0.00 99 1010.6
20260509064625 22 107 0.0 0.0 0.00 0.00 0.00 99 1010.9
20260509064123 22 107 0.0 0.0 0.00 0.00 0.00 99 1011.0
20260509063619 22 102 0.0 0.0 0.00 0.00 0.00 99 1010.9
20260509063116 22 105 0.0 0.0 0.00 0.00 0.00 99 1010.9
20260509062613 22 103 0.0 0.0 0.00 0.00 0.00 99 1010.7
20260509062110 22 103 0.0 0.0 0.00 0.00 0.00 99 1010.8
20260509061607 22 97 1.6 3.2 0.00 0.00 0.00 99 1010.5
20260509061104 22 98 0.0 0.0 0.00 0.00 0.00 99 1010.4
20260509060602 22 166 0.0 0.0 0.00 0.00 0.00 98 1010.7
20260509060058 22 111 1.6 3.2 0.00 0.00 0.00 98 1010.8
20260509055553 22 115 3.2 4.8 0.00 0.00 0.00 98 1010.9
20260509055049 21 109 0.0 0.0 0.00 0.00 0.00 98 1010.5
20260509054546 21 112 0.0 3.2 0.00 0.00 0.00 98 1010.2
20260509054044 21 35 0.0 0.0 0.00 0.00 0.00 98 1010.2
20260509053543 21 107 0.0 0.0 0.00 0.00 0.00 98 1010.0
20260509053039 21 100 0.0 0.0 0.00 0.00 0.00 98 1009.7
20260509052537 21 97 0.0 0.0 0.00 0.00 0.00 98 1009.7
20260509052035 21 104 0.0 0.0 0.00 0.00 0.00 98 1009.7
20260509051533 21 96 0.0 0.0 0.00 0.00 0.00 98 1009.9
20260509051029 21 104 0.0 0.0 0.00 0.00 0.00 98 1009.7
20260509050526 21 94 0.0 0.0 0.00 0.00 0.00 98 1009.6
20260509050022 21 98 0.0 0.0 0.00 0.00 0.00 98 1009.7
20260509045520 21 88 0.0 0.0 0.00 0.00 0.00 98 1009.9
20260509045011 21 95 0.0 0.0 0.00 0.00 0.00 98 1010.0
20260509044509 21 95 0.0 0.0 0.00 0.00 0.00 98 1009.9
20260509044006 21 97 0.0 0.0 0.00 0.00 0.00 98 1010.0
20260509043501 21 96 0.0 0.0 0.00 0.00 0.00 98 1010.0
20260509042957 21 104 0.0 0.0 0.00 0.00 0.00 98 1010.1
20260509042454 21 113 0.0 0.0 0.00 0.00 0.00 98 1010.2
20260509041950 21 164 1.6 3.2 0.00 0.00 0.00 98 1010.0
20260509041447 21 101 0.0 0.0 0.00 0.00 0.00 97 1010.2
20260509040945 21 101 0.0 0.0 0.00 0.00 0.00 97 1010.2
20260509040443 21 101 0.0 0.0 0.00 0.00 0.00 97 1010.1
20260509035939 21 100 0.0 0.0 0.00 0.00 0.00 97 1010.1
20260509035436 21 100 0.0 0.0 0.00 0.00 0.00 97 1010.2
20260509034933 21 100 0.0 0.0 0.00 0.00 0.00 96 1010.0
20260509034431 22 100 0.0 0.0 0.00 0.00 0.00 96 1010.1
20260509033927 22 105 0.0 0.0 0.00 0.00 0.00 96 1009.7
20260509033425 22 105 0.0 0.0 0.00 0.00 0.00 96 1009.7
20260509032921 22 97 0.0 0.0 0.00 0.00 0.00 96 1009.4
20260509032419 22 98 0.0 0.0 0.00 0.00 0.00 95 1009.7
20260509031917 22 97 0.0 0.0 0.00 0.00 0.00 95 1009.3
20260509031414 22 111 0.0 0.0 0.00 0.00 0.00 95 1009.4
20260509030911 22 110 0.0 0.0 0.00 0.00 0.00 94 1009.8
20260509030409 22 110 0.0 0.0 0.00 0.00 0.00 94 1009.5
20260509025906 22 110 0.0 0.0 0.00 0.00 0.00 94 1009.6
20260509025401 22 109 0.0 0.0 0.00 0.00 0.00 93 1009.5
20260509024856 22 101 0.0 0.0 0.00 0.00 0.00 93 1009.8
20260509024353 23 101 0.0 0.0 0.00 0.00 0.00 92 1009.4
20260509023850 23 105 0.0 0.0 0.00 0.00 0.00 92 1009.3
20260509023348 23 105 0.0 0.0 0.00 0.00 0.00 91 1009.4
20260509022844 23 74 0.0 3.2 0.00 0.00 0.00 91 1009.2
20260509022341 23 93 0.0 3.2 0.00 0.00 0.00 91 1009.1
20260509021838 23 120 1.6 3.2 0.00 0.00 0.00 90 1009.2
20260509021330 23 104 0.0 0.0 0.00 0.00 0.00 90 1009.0
20260509020828 23 104 0.0 0.0 0.00 0.00 0.00 90 1008.9
20260509020326 23 125 0.0 0.0 0.00 0.00 0.00 89 1009.3
20260509015822 23 102 0.0 3.2 0.00 0.00 0.00 89 1009.1
20260509015320 24 124 0.0 3.2 0.00 0.00 0.00 88 1008.9
20260509014816 24 79 3.2 8.0 0.00 0.00 0.00 88 1008.9
20260509014313 24 106 0.0 3.2 0.00 0.00 0.00 88 1008.9
20260509013810 24 76 0.0 3.2 0.00 0.00 0.00 88 1008.9
20260509013307 24 116 1.6 3.2 0.00 0.00 0.00 88 1008.9
20260509012803 24 108 0.0 3.2 0.00 0.00 0.00 88 1008.8
20260509012259 24 96 0.0 0.0 0.00 0.00 0.00 87 1008.7
20260509011757 24 133 0.0 3.2 0.00 0.00 0.00 87 1008.6
20260509011254 24 104 0.0 0.0 0.00 0.00 0.00 87 1008.9
20260509010752 25 100 0.0 0.0 0.00 0.00 0.00 86 1008.8
20260509010248 25 106 1.6 3.2 0.00 0.00 0.00 86 1008.9
20260509005746 25 105 0.0 0.0 0.00 0.00 0.00 86 1008.8
20260509005243 25 101 0.0 0.0 0.00 0.00 0.00 86 1008.8
20260509004737 25 106 0.0 0.0 0.00 0.00 0.00 86 1008.8
20260509004235 25 105 0.0 0.0 0.00 0.00 0.00 85 1008.8
20260509003733 25 102 0.0 0.0 0.00 0.00 0.00 85 1008.9
20260509003230 25 117 0.0 3.2 0.00 0.00 0.00 84 1008.8
20260509002727 25 115 1.6 3.2 0.00 0.00 0.00 84 1008.5
20260509002225 25 143 3.2 3.2 0.00 0.00 0.00 84 1008.5
20260509001722 25 89 0.0 3.2 0.00 0.00 0.00 84 1008.6
20260509001218 25 95 1.6 3.2 0.00 0.00 0.00 84 1008.7
20260509000716 25 119 1.6 3.2 0.00 0.00 0.00 83 1008.7
20260509000213 25 82 1.6 3.2 0.00 0.00 0.00 83 1008.9
20260508235710 25 118 0.0 3.2 0.00 0.00 0.00 83 1008.9
20260508235206 25 111 0.0 0.0 0.00 0.00 0.00 83 1008.6
20260508234704 25 131 1.6 3.2 0.00 0.00 0.00 83 1008.8
20260508234200 25 178 1.6 4.8 0.00 0.00 0.00 82 1008.7
20260508233654 25 104 0.0 0.0 0.00 0.00 0.00 82 1009.0
20260508233151 25 150 1.6 3.2 0.00 0.00 0.00 82 1008.8
20260508232649 25 103 0.0 0.0 0.00 0.00 0.00 82 1008.8
20260508232145 26 106 0.0 0.0 0.00 0.00 0.00 81 1008.9
20260508231643 26 184 3.2 4.8 0.00 0.00 0.00 80 1008.7
20260508231140 26 117 0.0 0.0 0.00 0.00 0.00 80 1008.9
20260508230637 26 104 4.8 8.0 0.00 0.00 0.00 79 1008.8
20260508230133 26 178 3.2 4.8 0.00 0.00 0.00 78 1008.7
20260508225631 26 148 1.6 3.2 0.00 0.00 0.00 79 1008.8
20260508225127 27 57 1.6 3.2 0.00 0.00 0.00 78 1008.6
20260508224625 26 102 1.6 3.2 0.00 0.00 0.00 78 1008.7
20260508224122 26 186 3.2 3.2 0.00 0.00 0.00 77 1008.6
20260508223620 27 108 0.0 3.2 0.00 0.00 0.00 76 1008.6
20260508223117 27 124 0.0 3.2 0.00 0.00 0.00 75 1008.6
20260508222614 27 146 3.2 3.2 0.00 0.00 0.00 74 1008.7
20260508222111 27 159 3.2 3.2 0.00 0.00 0.00 76 1008.7
20260508221607 27 182 1.6 3.2 0.00 0.00 0.00 75 1008.9
20260508221103 27 81 1.6 3.2 0.00 0.00 0.00 77 1009.1
20260508220559 27 80 0.0 0.0 0.00 0.00 0.00 78 1008.8
20260508220055 27 132 0.0 3.2 0.00 0.00 0.00 77 1008.9
20260508215552 27 128 1.6 3.2 0.00 0.00 0.00 77 1009.1
20260508215049 26 166 1.6 3.2 0.00 0.00 0.00 78 1009.0
20260508214547 26 152 1.6 3.2 0.00 0.00 0.00 77 1009.2
20260508214043 26 121 0.0 0.0 0.00 0.00 0.00 79 1009.0
20260508213540 26 132 1.6 3.2 0.00 0.00 0.00 80 1009.2